User: anonymous   Login
Location: Bougoura
(13.1861°N, 5.0773°W)
Time: 19:07:43
(UTC+00:00)
Language:

ARIANE 5 R/B - Orbit

View from above orbital plane
View from above orbital plane
View from above satellite
View from above satellite

Ground track
Ground track

The orbit data is extracted from the following two-line orbital elements,

1 32295U 07056C   20330.92129240  .00001256  00000-0  35816-3 0  9996
2 32295   5.8991 190.2621 6985616 164.5324 239.3340  2.65395762117257
Epoch (UTC): 25 November 2020 22:06:39
Eccentricity: 0.6985616
inclination: 5.8991°
perigee height: 264 km
apogee height: 31051 km
right ascension of ascending node: 190.2621°
argument of perigee: 164.5324°
revolutions per day: 2.65395762
mean anomaly at epoch: 239.3340°
orbit number at epoch: 11725

The dashed part of the orbit path shows where the satellite is in the earth's shadow,  

DLR